Regional Weather Roundup
Issued by NWS

Home | Current Version | Previous Version | Graphics & Text | Print | Product List | Glossary On
Versions: 1 2 3 4 5 6 7 8 9 10 11 12 13 14 15 16 17 18 19 20 21 22 23 24 25 26 27 28 29 30 31 32 33 34 35 36 37 38 39 40 41 42 43 44 45 46 47 48 49 50
791
ASUS44 KMEG 120310
RWRTN
TENNESSEE HOURLY STATE WEATHER ROUNDUP
NATIONAL WEATHER SERVICE MEMPHIS TN
900 PM CST THU FEB 11 2016

TNZ002-004-019-021-049-052-054-088>092-120400-
WEST TENNESSEE

CITY           SKY/WX    TMP DP  RH WIND       PRES   REMARKS
MEMPHIS INTL   MOCLDY    42  24  49 NE9       30.20F
NWS MEMPHIS      N/A     40 N/A N/A MISG        N/A
JACKSON        PTCLDY    38  24  57 E9        30.22F WCI  31
DYERSBURG      CLOUDY    36  25  64 NE9       30.26R WCI  29
UNION CITY     CLEAR     34  23  64 E6        30.22F WCI  29
PARIS          CLEAR     30  21  69 E8        30.23F WCI  23
LEXINGTON      CLEAR     36  21  55 NE6       30.22F WCI  31
$$

TNZ008-025-027-028-033-062-065-066-120400-
NORTH MIDDLE TENNESSEE

CITY           SKY/WX    TMP DP  RH WIND       PRES   REMARKS
NASHVILLE      PTCLDY    35  21  56 NE6       30.28S WCI  30
CLARKSVILLE    CLOUDY    32  18  56 E6        30.27F WCI  26
SMYRNA         CLOUDY    34  22  61 NE7       30.29S WCI  28
COOKEVILLE     CLEAR     28  21  74 CALM      30.23F
CROSSVILLE     CLEAR     30  19  63 NE5       30.21S WCI  25
$$

TNZ061-075-076-078-094-096-097-120400-
SOUTH MIDDLE TENNESSEE

CITY           SKY/WX    TMP DP  RH WIND       PRES   REMARKS
FAYETTEVILLE   CLEAR     36  25  64 N8        30.22S WCI  29
TULLAHOMA      CLEAR     32  25  74 N6        30.24S WCI  26
WINCHESTER     CLEAR     30  25  80 SE3       30.23R
MCMINNVILLE    CLEAR     30  23  74 NE6       30.24S WCI  24
COLUMBIA       CLEAR     36  27  69 NE8       30.23S WCI  29
SHELBYVILLE    CLEAR     36  25  64 N5        30.26S WCI  32
$$

TNZ017-018-042-046-047-120400-
NORTHEAST TENNESSEE

CITY           SKY/WX    TMP DP  RH WIND       PRES   REMARKS
TRI CITIES     CLOUDY    28  18  66 SW3       30.22S
$$

TNZ012-013-036-069-073-074-120400-
CENTRAL EAST TENNESSEE

CITY           SKY/WX    TMP DP  RH WIND       PRES   REMARKS
KNOXVILLE      PTCLDY    32  19  58 N10       30.25R WCI  24
OAK RIDGE      CLEAR     33  18  53 NE5       30.26R WCI  29
GATLINBURG     CLEAR     25  18  74 CALM      30.23S
MORRISTOWN     PTCLDY    28  18  64 CALM      30.23R
$$

TNZ083-085-099-120400-
SOUTHEAST TENNESSEE

CITY           SKY/WX    TMP DP  RH WIND       PRES   REMARKS
CHATTANOOGA    PTCLDY    33  25  72 N3        30.23F
$$

SKY/WX REPORTED AS FAIR MEANS FEW OR NO CLOUDS BELOW
12 THOUSAND FEET.





USA.gov is the U.S. government's official web portal to all federal, state and local government web resources and services.